STARLINK-1470, 45772

Orbit data source: Space-Track

STARLINK-1470, 45772 is a payload satellite owned by SpaceX/Seattle (US) in LEO that was launched on Sat, 13 Jun 2020 UTC via an FALCON 9 launch vehicle from the Air Force Eastern Test Range (AFETR). Payload-class satellites include a variety of spacecraft equipped with specific instruments for various scientific and technological missions. These include communications satellites like Starlink; space stations such as the ISS; scientific satellites like the Hubble; Earth observation satellites from companies like Planet Labs, Umbra, and HawkEye 360; GPS; miniature CubeSats for education and research; and military/defense satellites.

Loading next visibility...
Identifier
45772, 2020-038AU
Orbit
LEO
Country
Flag of USUS
Related business
Manufacturer
SpaceX/Seattle
Mission
Partially operational Commercial Communications
Bus & Motor
STARLINK, Unknown motor
Mass
260 kg wet, ~248 kg dry
Launch date (UTC)
2020-06-13 (6 years ago)
Launch vehicle
FALCON 9
Launch site
Air Force Eastern Test Range (AFETR)
Object type
Payload
Rocket body
Debris
Shape & HBR
Box + 1 Pan, 10.1 m
Radar Cross Section
13.562 m², Large (>1 m²)

Expand to show TLE details & history
Last TLE update: 12 hours ago

TLE from 12 hours ago
0 STARLINK-1470
1 45772U 20038AU  26123.72681441  .00046741  00000-0  14609-2 0  9999
2 45772  53.0436 277.9189 0001944 238.1165 121.9647 15.32725324325504
Epoch: 2026-05-03T17:26Z
TLE epoch observation values (Epoch: 2026-05-03T17:26:36.765Z)
Latitude
0.00005°
Longitude
154.63953°
Altitude
469.278 km
Speed
7.632 km/s
True Right ascension
18h 31m 40s
True Declination
0° 00' 00"
Sunlit
Object was in full shadow at epoch
Visualization orbit readout
Latitude
Unknown
Longitude
Unknown
Altitude
Unknown
Speed
Unknown
Apparent Right ascension
Unknown
Apparent Declination
Unknown
Sunlit
N/A
Visualization observer readout
Local Sidereal Time
13:20:29
Azimuth
Unknown
Elevation
Unknown
Doppler factor
Unknown
Orbital elements
Apogee altitude
469.292 km
Perigee altitude
466.63 km
Semi-major axis
6,846.098 km
Eccentricity
0.00019
Inclination
53.0436°
RAAN
277.9189°
Arg. of periapsis
238.1165°
True anomaly
121.9836°
Mean anomaly
121.9647°
Eccentric anomaly
121.97415°
Mean motion
3.83159 °/min
Orbital period
93.96 mins
BSTAR
0.0014609
Loading maneuver chart data...
Computing Atmospheric mass density...
Loading historical data...
Loading historical data...
Loading historical data...
Loading historical data...
Loading historical data...
Loading historical data...
Loading historical data...

Documentation

Showing up to 5 results
|